Location: Stonelick Lake State Park
(39.2170°N, 84.0850°W)
Time: 10:52:37
(UTC-04:00)

Amateur Radio Satellites - All Passes

Search period start: 27 August 2014 10:22
Search period end: 28 August 2014 10:22
Location: Stonelick Lake State Park, 39.2170°N, 84.0850°W

Satellite Date Start Highest point End Downlink Frequencies (MHz)
Time Altitude Azimuth
Saudisat 1A 27 Aug 10:57:08 10:59:05 13° 252° (WSW) 11:01:02 436.775 MHz
RS-15 27 Aug 10:59:34 11:09:57 45° 314° (NW) 11:20:18 29.354 - 29.394 USB, Beacon 29.352 USB
UKube-1 27 Aug 11:12:19 11:16:40 87° 284° (WNW) 11:21:00 145.840 MHz, 145.915 MHz
Oscar 11 27 Aug 11:22:29 11:26:53 79° 102° (ESE) 11:31:14 145.825 FM, Beacon 2401.500 USB
ISS 27 Aug 11:26:12 11:27:21 11° 128° (SE) 11:28:29 145.800 FM
KITSAT 1 27 Aug 11:29:12 11:36:38 42° 251° (WSW) 11:44:02 435.175 FM
FUNcube-1 27 Aug 11:37:31 11:41:50 44° 99° (E) 11:46:12 145.950 - 145.970 MHz USB
HO-68 27 Aug 11:45:03 11:51:43 44° 294° (WNW) 11:58:22 435.675 MHz FM
SO-50 27 Aug 12:37:30 12:38:27 11° 37° (NE) 12:39:24 436.795 FM
Oscar 16 27 Aug 12:45:54 12:46:56 11° 59° (ENE) 12:47:57 437.025 USB, Beacon 2401.1428
ISS 27 Aug 13:00:21 13:03:39 71° 323° (NW) 13:06:59 145.800 FM
FUNcube-1 27 Aug 13:14:55 13:17:53 18° 294° (WNW) 13:20:54 145.950 - 145.970 MHz USB
RS-15 27 Aug 13:19:12 13:26:16 19° 347° (NNW) 13:33:22 29.354 - 29.394 USB, Beacon 29.352 USB
Oscar 19 27 Aug 13:46:33 13:51:18 39° 70° (ENE) 13:56:05 437.125 CW, 437.150 USB
JAS-1B 27 Aug 14:09:14 14:18:14 43° 66° (ENE) 14:26:32 435.800 - 435.900 CW/SSB
ITAMSAT 1 27 Aug 14:10:50 14:15:16 30° 67° (ENE) 14:19:42 435.822 SSB
SO-50 27 Aug 14:15:12 14:19:58 62° 56° (NE) 14:24:46 436.795 FM
Oscar 16 27 Aug 14:20:17 14:25:26 86° 76° (ENE) 14:30:38 437.025 USB, Beacon 2401.1428
Uribyol 2 27 Aug 14:21:22 14:26:08 39° 70° (ENE) 14:30:55 436.500 FM
AO-27 27 Aug 14:38:08 14:43:10 55° 72° (ENE) 14:48:13 436.795 MHz FM
ISS 27 Aug 14:38:48 14:40:54 15° 341° (NNW) 14:42:59 145.800 FM
AO-Echo 27 Aug 14:43:02 14:48:06 65° 74° (ENE) 14:53:01 ?
MaSat-1 27 Aug 14:43:54 14:48:36 62° 111° (ESE) 14:53:42 437.345 MHz
Gurwin Techsat 1B 27 Aug 14:45:53 14:50:22 29° 67° (ENE) 14:54:52 435.225 FM
UOSAT-12 27 Aug 14:56:26 14:59:31 17° 43° (NE) 15:02:35 437.025 FM, 437.400 FM
AO-7 27 Aug 15:03:38 15:08:37 18° 50° (NE) 15:13:36 29.400 - 29.500 MHz
Oscar 19 27 Aug 15:26:39 15:30:44 24° 266° (W) 15:34:51 437.125 CW, 437.150 USB
Uosat F 27 Aug 15:34:28 15:35:45 11° 59° (ENE) 15:37:03 435.120 FM
RS-15 27 Aug 15:36:23 15:44:29 22° 24° (NNE) 15:52:42 29.354 - 29.394 USB, Beacon 29.352 USB
TMSAT-1 27 Aug 15:38:58 15:44:11 65° 74° (ENE) 15:49:26 436.925 FM
PANSAT 27 Aug 15:39:41 15:42:07 16° 176° (S) 15:44:33 not established
ITAMSAT 1 27 Aug 15:50:05 15:54:40 32° 263° (W) 15:59:15 435.822 SSB
SO-50 27 Aug 15:57:19 16:00:02 15° 252° (WSW) 16:02:46 436.795 FM
JAS-1B 27 Aug 15:58:55 16:08:26 51° 261° (W) 16:17:21 435.800 - 435.900 CW/SSB
Uribyol 2 27 Aug 16:01:39 16:05:42 23° 265° (W) 16:09:47 436.500 FM
AO-27 27 Aug 16:19:44 16:23:00 17° 268° (W) 16:26:17 436.795 MHz FM
MaSat-1 27 Aug 16:22:41 16:26:10 19° 310° (NW) 16:29:46 437.345 MHz
AO-Echo 27 Aug 16:24:49 16:27:14 13° 269° (W) 16:29:37 ?
Gurwin Techsat 1B 27 Aug 16:25:24 16:30:12 34° 263° (W) 16:35:01 435.225 FM
UOSAT-12 27 Aug 16:35:27 16:40:10 69° 241° (WSW) 16:44:47 437.025 FM, 437.400 FM
OPAL 27 Aug 16:44:07 16:44:35 10° 91° (E) 16:45:02 ?
AO-7 27 Aug 16:51:46 17:00:06 78° 70° (ENE) 17:08:26 29.400 - 29.500 MHz
Uosat F 27 Aug 17:08:45 17:13:47 88° 256° (WSW) 17:18:49 435.120 FM
PANSAT 27 Aug 17:19:32 17:21:38 14° 189° (S) 17:23:44 not established
TMSAT-1 27 Aug 17:21:42 17:24:32 15° 269° (W) 17:27:23 436.925 FM
Hamsat 27 Aug 17:27:19 17:28:31 11° 63° (ENE) 17:29:44 145.90 MHz
RS-15 27 Aug 17:48:45 17:59:43 62° 53° (NE) 18:11:05 29.354 - 29.394 USB, Beacon 29.352 USB
ISS 27 Aug 17:54:10 17:56:36 18° 22° (NNE) 17:59:02 145.800 FM
Sapphire 27 Aug 18:07:23 18:12:27 42° 111° (ESE) 18:17:32 437.095 MHz 1200 baud AX-25 AFSK
Oscar 10/S400 27 Aug 18:17:58 18:35:04 37° 148° (SSE) 19:01:15 145.825 - 145.975 CW/USB, Beacon 145.810 USB
OPAL 27 Aug 18:18:49 18:24:04 87° 286° (WNW) 18:29:17 ?
PCSat 27 Aug 18:36:49 18:42:14 84° 117° (ESE) 18:47:41 145.825 MHz
JAS-2 27 Aug 18:39:17 18:45:41 71° 74° (ENE) 18:51:22 435.800 - 435.900 CW/SSB, 435.910 FM
AO-7 27 Aug 18:47:44 18:53:37 21° 267° (W) 18:59:32 29.400 - 29.500 MHz
Hamsat 27 Aug 18:59:37 19:03:52 67° 259° (W) 19:08:13 145.90 MHz
SO-67 27 Aug 19:09:22 19:11:42 17° 69° (ENE) 19:14:02 435.3500 MHz FM
ISS 27 Aug 19:30:20 19:33:41 77° 220° (SW) 19:37:01 145.800 FM
Sapphire 27 Aug 19:51:25 19:56:00 27° 309° (NW) 20:00:37 437.095 MHz 1200 baud AX-25 AFSK
STRAND 1 27 Aug 19:57:04 20:01:51 39° 98° (E) 20:06:36 ?
OPAL 27 Aug 20:00:25 20:02:08 12° 303° (WNW) 20:03:51 ?
RS-15 27 Aug 20:01:44 20:11:32 38° 253° (WSW) 20:21:45 29.354 - 29.394 USB, Beacon 29.352 USB
PCSat 27 Aug 20:23:02 20:26:21 16° 316° (NW) 20:29:40 145.825 MHz
HO-68 27 Aug 20:26:03 20:31:31 25° 59° (ENE) 20:36:59 435.675 MHz FM
JAS-2 27 Aug 20:27:24 20:31:05 16° 267° (W) 20:34:34 435.800 - 435.900 CW/SSB, 435.910 FM
SO-67 27 Aug 20:41:42 20:44:34 24° 264° (W) 20:47:26 435.3500 MHz FM
STRAND 1 27 Aug 21:36:48 21:40:48 24° 294° (WNW) 21:44:47 ?
AO-40 27 Aug 21:39:57 03:25:42 42° 183° (S) 09:36:51 Beacon 2401.320
UKube-1 27 Aug 22:06:34 22:10:53 71° 75° (ENE) 22:15:14 145.840 MHz, 145.915 MHz
HO-68 27 Aug 22:11:33 22:18:38 65° 257° (WSW) 22:25:44 435.675 MHz FM
Oscar 11 27 Aug 22:16:21 22:20:33 52° 74° (ENE) 22:24:47 145.825 FM, Beacon 2401.500 USB
FUNcube-1 27 Aug 22:33:31 22:37:07 29° 70° (ENE) 22:40:46 145.950 - 145.970 MHz USB
MaSat-1 27 Aug 23:04:36 23:06:44 13° 46° (NE) 23:08:45 437.345 MHz
Saudisat 1A 27 Aug 23:22:12 23:25:25 20° 111° (ESE) 23:28:40 436.775 MHz
Oscar 11 27 Aug 23:55:08 23:57:02 13° 269° (W) 23:58:56 145.825 FM, Beacon 2401.500 USB
KITSAT 1 28 Aug 00:01:18 00:08:18 34° 107° (ESE) 00:15:18 435.175 FM
FUNcube-1 28 Aug 00:10:23 00:13:32 21° 266° (W) 00:16:44 145.950 - 145.970 MHz USB
MaSat-1 28 Aug 00:39:54 00:44:33 77° 247° (WSW) 00:48:31 437.345 MHz
Saudisat 1A 28 Aug 01:00:35 01:04:44 40° 307° (NW) 01:08:54 436.775 MHz
KITSAT 1 28 Aug 01:55:27 02:03:19 54° 306° (NW) 02:11:15 435.175 FM
Oscar 19 28 Aug 02:00:33 02:03:28 15° 91° (E) 02:06:22 437.125 CW, 437.150 USB
ITAMSAT 1 28 Aug 02:27:20 02:28:23 11° 89° (E) 02:29:27 435.822 SSB
Oscar 16 28 Aug 02:33:28 02:38:09 33° 97° (E) 02:42:48 437.025 USB, Beacon 2401.1428
Uribyol 2 28 Aug 02:36:27 02:39:23 15° 92° (E) 02:42:18 436.500 FM
AO-Echo 28 Aug 02:52:16 02:55:48 21° 94° (E) 02:59:19 ?
AO-27 28 Aug 02:53:02 02:56:56 21° 94° (E) 03:00:50 436.795 MHz FM
Sapphire 28 Aug 02:56:27 03:01:10 29° 52° (NE) 03:05:51 437.095 MHz 1200 baud AX-25 AFSK
Gurwin Techsat 1B 28 Aug 03:05:06 03:06:51 12° 89° (E) 03:08:36 435.225 FM
PCSat 28 Aug 03:25:56 03:31:15 53° 58° (ENE) 03:36:32 145.825 MHz
Oscar 19 28 Aug 03:38:04 03:43:12 62° 287° (WNW) 03:48:18 437.125 CW, 437.150 USB
JAS-1B 28 Aug 03:47:59 03:54:48 59° 100° (E) 04:00:39 435.800 - 435.900 CW/SSB
OPAL 28 Aug 03:56:07 03:59:29 18° 61° (ENE) 04:02:53 ?
KITSAT 1 28 Aug 03:56:17 04:00:47 16° 330° (NNW) 04:05:19 435.175 FM
TMSAT-1 28 Aug 03:56:24 04:00:55 28° 95° (E) 04:05:24 436.925 FM
ITAMSAT 1 28 Aug 04:03:16 04:08:28 82° 285° (WNW) 04:13:39 435.822 SSB
Oscar 16 28 Aug 04:12:57 04:17:22 29° 293° (WNW) 04:21:46 437.025 USB, Beacon 2401.1428
Uribyol 2 28 Aug 04:14:07 04:19:14 61° 287° (WNW) 04:24:21 436.500 FM
SO-50 28 Aug 04:30:07 04:33:43 24° 112° (ESE) 04:37:22 436.795 FM
AO-Echo 28 Aug 04:30:23 04:34:41 36° 290° (WNW) 04:38:57 ?
AO-27 28 Aug 04:31:44 04:36:37 44° 290° (WNW) 04:41:30 436.795 MHz FM
Sapphire 28 Aug 04:39:38 04:44:40 40° 249° (WSW) 04:49:41 437.095 MHz 1200 baud AX-25 AFSK
Gurwin Techsat 1B 28 Aug 04:42:04 04:47:23 79° 285° (WNW) 04:52:41 435.225 FM
AO-7 28 Aug 04:55:31 05:02:17 27° 95° (E) 05:08:58 29.400 - 29.500 MHz
PCSat 28 Aug 05:10:22 05:14:14 20° 254° (WSW) 05:18:05 145.825 MHz
Uosat F 28 Aug 05:17:59 05:22:23 30° 97° (E) 05:26:45 435.120 FM
OPAL 28 Aug 05:32:58 05:37:53 55° 257° (WSW) 05:42:55 ?
TMSAT-1 28 Aug 05:36:05 05:40:50 35° 291° (WNW) 05:45:34 436.925 FM
JAS-1B 28 Aug 05:39:39 05:44:43 22° 302° (WNW) 05:49:18 435.800 - 435.900 CW/SSB
ITAMSAT 1 28 Aug 05:46:44 05:47:06 10° 302° (WNW) 05:47:28 435.822 SSB
SO-50 28 Aug 06:09:58 06:14:05 35° 309° (NW) 06:18:17 436.795 FM
UOSAT-12 28 Aug 06:45:31 06:49:53 46° 116° (ESE) 06:54:22 437.025 FM, 437.400 FM
Hamsat 28 Aug 06:47:04 06:50:35 23° 94° (E) 06:54:03 145.90 MHz
AO-7 28 Aug 06:47:22 06:55:31 63° 293° (WNW) 07:03:38 29.400 - 29.500 MHz
Uosat F 28 Aug 06:56:48 07:01:05 29° 293° (WNW) 07:05:20 435.120 FM
STRAND 1 28 Aug 07:11:56 07:16:51 52° 72° (ENE) 07:21:48 ?
JAS-2 28 Aug 07:33:58 07:39:09 65° 102° (ESE) 07:44:41 435.800 - 435.900 CW/SSB, 435.910 FM
Saudisat 1A 28 Aug 07:49:43 07:52:21 15° 43° (NE) 07:54:58 436.775 MHz
KITSAT 1 28 Aug 07:55:21 08:00:27 18° 33° (NNE) 08:05:31 435.175 FM
SO-67 28 Aug 08:06:20 08:09:07 22° 95° (E) 08:11:53 435.3500 MHz FM
RS-15 28 Aug 08:11:33 08:21:38 42° 108° (ESE) 08:31:30 29.354 - 29.394 USB, Beacon 29.352 USB
Hamsat 28 Aug 08:22:46 08:26:30 28° 290° (WNW) 08:30:13 145.90 MHz
UOSAT-12 28 Aug 08:26:37 08:30:16 22° 314° (NW) 08:33:58 437.025 FM, 437.400 FM
AO-7 28 Aug 08:43:01 08:46:40 14° 313° (NW) 08:50:20 29.400 - 29.500 MHz
STRAND 1 28 Aug 08:53:00 08:56:19 17° 267° (W) 08:59:40 ?
JAS-2 28 Aug 09:20:57 09:23:48 15° 297° (WNW) 09:26:43 435.800 - 435.900 CW/SSB, 435.910 FM
Saudisat 1A 28 Aug 09:28:00 09:32:24 69° 241° (WSW) 09:36:45 436.775 MHz
SO-67 28 Aug 09:39:35 09:42:01 18° 290° (WNW) 09:44:26 435.3500 MHz FM
HO-68 28 Aug 09:41:08 09:46:55 26° 95° (E) 09:52:40 435.675 MHz FM
KITSAT 1 28 Aug 09:49:35 09:57:37 63° 57° (ENE) 10:05:35 435.175 FM
UKube-1 28 Aug 09:57:48 09:59:47 13° 92° (E) 10:01:46 145.840 MHz, 145.915 MHz
Oscar 11 28 Aug 10:08:01 10:08:45 10° 90° (E) 10:09:29 145.825 FM, Beacon 2401.500 USB
